www.pogodaiklimat.ru

Погода и климат >> Архив погоды >> Австралия >> Виктория >> Чарльтон


ПОГОДА в Чарльтоне

  • Прогноз погоды в Чарльтоне
  • Монитор погоды в Чарльтоне

АРХИВ ПОГОДЫ в Чарльтоне

Время (UTC), дата Ветер
(напр.,м/с)
 
Видим.   Явления Облачность Т
(С)
Тd
(С)
f
(%)
Тe
(С)
Тes
(С)
Комфортность P
(гПа)
Po
(гПа)
Тmin
(С)
Tmax
(С)
R
(мм)
R24
(мм)
S
(см)
13 13.07 З 3 н/о н/о +4.8 +3.6 92 +1 +1 1026.5 1010.3
14 13.07 З 3 н/о {туман} н/о +4.2 +3.5 95 +1 +1 1026.2 1010.0 +11.7
17 13.07 СЗ 2 н/о {туман} н/о +2.2 +2.1 99 -1 -1 1025.6 1009.4
19 13.07 З 3 н/о н/о +2.6 +2.5 99 -1 -1 1024.3 1008.1
20 13.07 СЗ 3 н/о н/о +3.3 +3.2 99 -1 -1 1024.6 1008.4
22 13.07 СЗ 4 н/о н/о +5.1 +5.0 99 +1 +1 1024.9 1008.7
23 13.07 СЗ 5 н/о н/о +6.7 +6.6 99 +2 +2 1024.5 1008.3
01 14.07 З 6 н/о н/о +9.6 +9.5 99 +6 +6 1024.6 1008.4
02 14.07 З 7 н/о в посл. час дождь {туман} н/о +9.9 +9.8 99 +6 +6 1023.8 1007.6 +2.0
04 14.07 З 7 н/о н/о +10.8 +9.2 90 +7 +7 1021.9 1005.8
05 14.07 З 7 н/о {туман} н/о +11.8 +9.2 84 +9 +9 1021.0 1004.9
07 14.07 З 6 н/о н/о +11.7 +7.6 76 +9 +9 1021.2 1005.1
08 14.07 З 7 н/о н/о +10.7 +7.6 81 +7 +7 1020.9 1004.8
10 14.07 З 6 н/о н/о +10.2 +6.9 80 +7 +7 1021.0 1004.9
11 14.07 З 6 н/о н/о +9.7 +7.0 83 +6 +6 1021.2 1005.1
13 14.07 З 5 н/о н/о +9.1 +7.2 88 +6 +6 1020.8 1004.7
14 14.07 З 5 н/о н/о +8.8 +7.7 93 +5 +5 1020.8 1004.7 +12.8
16 14.07 З 5 н/о н/о +8.3 +7.5 95 +5 +5 1020.5 1004.4
17 14.07 З 5 н/о н/о +8.5 +7.3 92 +5 +5 1021.0 1004.9
19 14.07 З 3 н/о н/о +8.0 +7.4 96 +5 +5 1021.8 1005.7
20 14.07 З 4 н/о н/о +8.4 +7.6 95 +5 +5 1022.7 1006.5
22 14.07 З 3 н/о н/о +7.7 +7.6 99 +5 +5 1024.4 1008.2
23 14.07 З 4 н/о {туман} н/о +8.6 +8.5 99 +5 +5 1025.1 1008.9
01 15.07 ЮЗ 4 н/о н/о +10.5 +9.1 91 +8 +8 1026.0 1009.8
02 15.07 ЮЗ 3 н/о н/о +11.5 +9.9 90 +10 +10 1025.3 1009.1 +7.2
04 15.07 ЮЗ 5 н/о н/о +12.9 +9.0 77 +11 +11 1024.1 1007.9
05 15.07 З 4 н/о н/о +12.8 +9.6 81 +11 +11 1024.3 1008.1
07 15.07 З 4 н/о н/о +12.2 +9.6 84 +10 +10 1024.5 1008.3
08 15.07 З 3 н/о н/о +11.1 +9.2 88 +9 +9 1025.2 1009.0
10 15.07 З 3 н/о н/о +9.3 +9.0 98 +7 +7 1025.8 1009.6
11 15.07 З 4 н/о н/о +9.7 +9.6 99 +7 +7 1026.0 1009.8
13 15.07 З 4 н/о н/о +9.6 +9.5 99 +7 +7 1025.8 1009.6
14 15.07 З 3 н/о н/о +9.5 +9.4 99 +7 +7 1025.4 1009.2 +13.9
16 15.07 З 4 н/о н/о +9.1 +9.0 99 +6 +6 1024.6 1008.4
17 15.07 З 4 н/о н/о +8.9 +8.8 99 +6 +6 1024.6 1008.4
19 15.07 З 3 н/о н/о +8.8 +8.7 99 +6 +6 1024.1 1007.9
20 15.07 З 3 н/о {туман} н/о +8.7 +8.6 99 +6 +6 1024.5 1008.3
22 15.07 З 3 н/о н/о +8.7 +8.6 99 +6 +6 1025.2 1009.0
23 15.07 З 4 н/о {туман} н/о +10.1 +9.0 93 +7 +7 1025.5 1009.3
01 16.07 З 4 н/о н/о +12.4 +10.3 87 +10 +10 1026.0 1009.8
02 16.07 З 5 н/о н/о +13.3 +10.7 84 +11 +11 1025.4 1009.2 +8.3
04 16.07 ЮЗ 4 н/о н/о +13.0 +9.1 77 +11 +11 1024.1 1007.9
05 16.07 З 5 н/о н/о +14.4 +9.0 70 +13 +13 1023.9 1007.7
07 16.07 ЮЗ 3 н/о н/о +11.7 +7.8 77 +10 +10 1024.1 1007.9
08 16.07 З 2 н/о н/о +11.1 +8.0 81 +10 +10 1024.2 1008.0
10 16.07 З 2 н/о н/о +11.0 +9.1 88 +10 +10 1024.7 1008.5
11 16.07 З 2 н/о н/о +10.9 +9.0 88 +9 +9 1024.7 1008.5
13 16.07 З 4 н/о н/о +10.2 +9.3 94 +7 +7 1024.5 1008.3
14 16.07 З 3 н/о н/о +9.1 +8.3 95 +6 +6 1024.0 1007.8 +15.0
16 16.07 З 3 н/о н/о +7.8 +5.4 85 +5 +5 1022.7 1006.5
17 16.07 СЗ 3 н/о н/о +7.9 +6.5 91 +5 +5 1022.2 1006.1
19 16.07 С 1 н/о н/о +7.8 +6.7 93 +8 +8 1021.2 1005.1
20 16.07 СЗ 3 н/о в посл. час дождь {туман} н/о +7.8 +7.7 99 +5 +5 1020.9 1004.8
22 16.07 С 3 н/о н/о +8.1 +8.1 100 +5 +5 1020.4 1004.3
23 16.07 СЗ 4 н/о {туман} н/о +8.9 +8.9 100 +6 +6 1020.2 1004.1
01 17.07 З 5 н/о н/о +10.3 +9.5 95 +7 +7 1019.6 1003.5
04 17.07 З 6 н/о н/о +12.3 +11.8 97 +10 +10 1017.0 1000.9
05 17.07 З 5 н/о в посл. час дождь {туман} н/о +12.4 +9.2 81 +10 +10 1016.8 1000.7
07 17.07 З 5 н/о н/о +12.2 +8.5 78 +10 +10 1016.9 1000.8
08 17.07 З 5 н/о в посл. час дождь {туман} н/о +10.7 +10.1 96 +8 +8 1016.9 1000.8
10 17.07 З 2 н/о н/о +9.1 +8.8 98 +7 +7 1018.2 1002.1
11 17.07 З 3 н/о в посл. час дождь {туман} н/о +8.4 +8.3 99 +6 +6 1018.5 1002.4
13 17.07 З 4 н/о н/о +8.4 +8.3 99 +5 +5 1018.9 1002.8
14 17.07 З 4 н/о {туман} н/о +7.6 +7.5 99 +4 +4 1019.1 1003.0 +13.8
16 17.07 З 2 н/о н/о +6.4 +6.3 99 +4 +4 1019.4 1003.3
17 17.07 ЮЗ 1 н/о {осадки} н/о +5.2 +5.1 99 +4 +4 1019.3 1003.2 0.4
19 17.07 С 1 н/о н/о +3.5 +3.4 99 +3 +3 1018.8 1002.7
20 17.07 СЗ 3 н/о {осадки} н/о +2.7 +2.6 99 -1 -1 1019.1 1003.0
22 17.07 штиль 0 н/о н/о +2.6 +2.6 100 +1 +1 1020.5 1004.4
23 17.07 З 1 н/о {осадки} н/о +3.6 +3.6 100 +3 +3 1021.0 1004.9 2
01 18.07 СЗ 1 н/о н/о +9.0 +9.0 100 +8 +8 1020.5 1004.4
02 18.07 З 3 н/о н/о +11.0 +6.6 74 +9 +9 1019.5 1003.4 +2.6
04 18.07 СЗ 4 н/о н/о +11.9 +6.6 70 +10 +10 1018.5 1002.4
05 18.07 СЗ 4 н/о н/о +12.2 +6.9 70 +10 +10 1018.3 1002.2
07 18.07 С 3 н/о н/о +11.0 +7.3 78 +9 +9 1017.8 1001.7
08 18.07 С 3 н/о н/о +10.9 +8.8 87 +9 +9 1018.3 1002.2
10 18.07 С 3 н/о н/о +9.9 +9.8 99 +8 +8 1018.2 1002.1
11 18.07 СЗ 3 н/о н/о +9.2 +8.7 97 +7 +7 1018.7 1002.6
13 18.07 С 3 н/о н/о +8.1 +8.0 99 +5 +5 1018.7 1002.6
14 18.07 СЗ 3 н/о н/о +8.8 +8.7 99 +6 +6 1019.1 1003.0 +13.1
16 18.07 СЗ 3 н/о н/о +8.9 +8.1 95 +6 +6 1019.0 1002.9
17 18.07 СЗ 3 н/о в посл. час дождь {туман} н/о +8.9 +8.8 99 +6 +6 1019.2 1003.1
19 18.07 З 2 н/о н/о +7.0 +6.9 99 +5 +5 1019.3 1003.2
20 18.07 З 3 н/о в посл. час дождь {туман} н/о +7.6 +7.6 100 +5 +5 1019.9 1003.8
22 18.07 штиль 0 н/о н/о +7.3 +7.3 100 +6 +6 1021.4 1005.3
23 18.07 штиль 0 н/о {туман} н/о +8.3 +8.3 100 +7 +7 1021.9 1005.8
01 19.07 З 2 н/о н/о +9.0 +9.0 100 +7 +7 1022.8 1006.6
02 19.07 З 2 н/о н/о +9.5 +9.5 100 +8 +8 1022.4 1006.2 +6.4
04 19.07 С 3 н/о н/о +11.2 +9.3 88 +10 +10 1021.3 1005.2
05 19.07 С 2 н/о н/о +10.5 +8.1 85 +9 +9 1021.1 1005.0
07 19.07 штиль 0 н/о н/о +10.3 +8.1 86 +10 +10 1021.4 1005.3
08 19.07 СВ 1 н/о н/о +10.0 +8.9 93 +9 +9 1021.4 1005.3
10 19.07 ЮВ 1 н/о н/о +9.0 +8.6 97 +8 +8 1021.9 1005.8
11 19.07 В 2 н/о н/о +8.2 +8.1 99 +6 +6 1021.9 1005.8
13 19.07 СВ 4 н/о н/о +8.6 +8.3 98 +5 +5 1022.0 1005.9
14 19.07 СВ 4 н/о н/о +8.3 +8.0 98 +5 +5 1021.6 1005.5 +12.1
16 19.07 СВ 3 н/о н/о +7.1 +7.0 99 +4 +4 1020.9 1004.8
17 19.07 СВ 4 н/о н/о +6.9 +6.9 100 +3 +3 1020.5 1004.4
19 19.07 СВ 4 н/о н/о +6.4 +6.4 100 +3 +3 1019.9 1003.8
20 19.07 СВ 3 н/о {туман} н/о +5.9 +5.9 100 +2 +2 1019.9 1003.8
22 19.07 СВ 3 н/о н/о +5.5 +5.5 100 +2 +2 1020.3 1004.2
23 19.07 СВ 4 н/о {туман} н/о +7.1 +7.1 100 +4 +4 1020.3 1004.2
01 20.07 СВ 4 н/о н/о +11.5 +8.2 80 +9 +9 1019.7 1003.6
02 20.07 СВ 4 н/о н/о +13.3 +8.0 70 +12 +12 1018.3 1002.2 +5.3
04 20.07 С 5 н/о н/о +15.6 +7.4 58 +14 +14 1015.4 999.4
05 20.07 С 5 н/о н/о +16.0 +7.0 55 +15 +15 1014.9 998.9
07 20.07 С 4 н/о н/о +14.2 +7.0 62 +13 +13 1013.5 997.5
08 20.07 С 4 н/о н/о +12.6 +6.6 67 +11 +11 1013.2 997.2
10 20.07 С 4 н/о н/о +10.5 +5.3 70 +8 +8 1012.9 996.9
11 20.07 СВ 5 н/о н/о +9.8 +4.8 71 +7 +7 1012.8 996.8

 

Местоположение метеостанции Чарльтон (Виктория, Австралия): широта -36.27 долгота 143.35 высота над уровнем моря 132 м.

В архиве по умолчанию представлена погода в Чарльтоне за последнюю неделю. Архивные данные за месяц целиком и за предыдущие месяцы, начиная с января 2011 года, Вы можете получить, выбрав интересующий диапазон дат из раскрывающегося списка и нажав кнопку "Ввод!".


*Определитесь, кто Вы:
робот инопланетянин человек

Внимание! Время в таблицах - всемирное. Для получения местного времени необходимо прибавить поправку, которая равна 10 ч.

Смотрите также архив погоды в соседних городах и на ближайших метеорологических станциях:

Погода в Суон-Хилле (Виктория, Австралия) (100 км)
Погода в Бендиго (Виктория, Австралия) (101 км)
Погода в Лонгеренонге (Виктория, Австралия) (104 км)
Погода в Стауэлле (Виктория, Австралия) (105 км)
Погода в Пиренисе (Виктория, Австралия) (108 км)
Погода в Хоптауне (Виктория, Австралия) (109 км)
Погода в Хоршаме (Виктория, Австралия) (115 км)
Погода на Горе Уильям (Виктория, Австралия) (133 км)
Погода в Редесдейле (Виктория, Австралия) (134 км)
Погода в Балларате (Виктория, Австралия) (144 км)

Пояснения к столбцам:

Ветер - указаны скорость ветра в м/с - средняя за 10 мин, порывы в срок и между сроками (в фигурных скобках) и направление, откуда дует ветер: С - северный, СВ - северо-восточный, В - восточный, ЮВ - юго-восточный, Ю - южный, ЮЗ - юго-западный, З - западный, СЗ - северо-западный.
Видимость - горизонтальная дальность видимости в метрах или километрах. При видимости от 1 до 10 км при отсутствии осадков обычно наблюдается дымка, при ухудшении видимости до 1 км и менее - туман. В сухую погоду видимость может ухудшаться дымом, пылью или мглою.
Явления - указаны атмосферные явления, наблюдавшиеся в срок или в последний час перед сроком; фигурными скобками обозначены явления, наблюдавшиеся между сроками (за 1-3 часа до срока); квадратными скобками обозначены град или гололедные отложения с указанием их диаметра в мм.
Облачность - указаны через наклонную черту общая и нижняя облачность в баллах и высота нижней границы облаков в метрах; квадратными скобками обозначены формы облаков: Ci - перистые, Cs - перисто-слоистые, Cc - перисто-кучевые, Ac - высококучевые, As - высокослоистые, Sc - слоисто-кучевые, Ns - слоисто-дождевые, Cu - кучевые, Cb - кучево-дождевые. Подробнее классификацию облаков см. в Атласе облаков (PDF).
T - Температура воздуха - температура, измеренная на высоте 2 м над землей.
Td - Температура точки росы - температура, при понижении до которой содержащийся в воздухе водяной пар достигнет насыщения.
f - Относительная влажность воздуха - влажноcть воздуха, измеренная на высоте 2 м над землей.
Te - Эффективная температура - температура, которую ощущает одетый по сезону человек в тени. Характеристика душности погоды. При расчете учитывается влияние влажности воздуха и скорости ветра на теплоощущения человека.
Tes - Эффективная температура на солнце - температура, которую ощущает человек, с поправкой на солнечный нагрев. Характеристика знойности погоды. Зависит от высоты солнца над горизонтом, облачности и скорости ветра. Ночью, в пасмурную погоду, а также при ветре 12 м/с и более поправка равна нулю.
P - Атмосферное давление - приведенное к уровню моря атмосферное давление.
Po - Атмосферное давление - измеренное на уровне метеостанции атмосферное давление.
Tmin - Минимальная температура - минимум температуры воздуха на высоте 2 м над землей.
Tmax - Максимальная температура - максимум температуры воздуха на высоте 2 м над землей.
R - Количество осадков - Количество выпавших осадков за период времени, мм. При наведении курсора мыши на число - период времени, за который выпало указанное количество осадков.
R24 - Количество осадков - Количество выпавших осадков за 24 часа, мм.
S - Снежный покров - Высота снежного покрова, см. При наведении курсора мыши на число - состояние снежного покрова и степень покрытия местности в баллах.